sat.trackr.live / text

‹ back to catalog

STARLINK-31307

NORAD 59089 · 2024-041R

PAYLOAD ACTIVE UNKNOWN

§ Identity

Operator
Country
US
Launch date
2024-02-29
Launch site
AFETR
Launch vehicle
Mass (kg)
RCS (m²)

Purposes: comms

External: N2YO · Heavens-Above · Gunter

§ Orbital elements

Epoch: 2026-05-24T16:03:30.402432Z

Period
94.27 min
Inclination
43.0025°
Eccentricity
0.0001514
Mean motion
15.27584059 rev/d
Perigee alt
482.0 km
Apogee alt
484.1 km
Semi-major
6,861.2 km
B*
6.5534e-5
RAAN
241.4429°
Arg perigee
268.9003°
Mean anomaly
91.1675°
Rev number
12,594

§ Raw data

STARLINK-313071 59089U 24041R   26144.66910188  .00001542  00000+0  65534-4 0  99962 59089  43.0025 241.4429 0001514 268.9003  91.1675 15.27584059125948

JSON: /api/v1/satellites/59089 · /tle

For live sub-satellite position, see the globe view (requires WebGL).

§ Visibility from observer

Set your observer location to see the next 7 days of passes ≥ 10°. The values pass through the URL so the page stays shareable.

No JS? Fill the form by hand. The geolocation button needs JavaScript.